User: anonymous   Login
Location: Holiday Acres Laynes 2 Mobile Home Park
(26.7249°N, 81.8671°W)
Time: 02:07:03
(UTC+00:00)
Language:

Cosmos 2341 Rocket - Orbit

View from above orbital plane
View from above orbital plane
View from above satellite
View from above satellite

Ground track
Ground track

The orbit data is extracted from the following two-line orbital elements,

1 24773U 97017B   21060.15681323  .00000044  00000-0  30440-4 0  9998
2 24773  82.9177  90.7267 0025421 136.9438 284.1152 13.73660873196360
Epoch (UTC): 01 March 2021 03:45:48
Eccentricity: 0.0025421
inclination: 82.9177°
perigee height: 968 km
apogee height: 1005 km
right ascension of ascending node: 90.7267°
argument of perigee: 136.9438°
revolutions per day: 13.73660873
mean anomaly at epoch: 284.1152°
orbit number at epoch: 19636

The dashed part of the orbit path shows where the satellite is in the earth's shadow,  

DLR